Regional Weather Roundup
Issued by NWS

Home | Current Version | Previous Version | Graphics & Text | Print | Product List | Glossary On
Versions: 1 2 3 4 5 6 7 8 9 10 11 12 13 14 15 16 17 18 19 20 21 22 23 24 25 26 27 28 29 30 31 32 33 34 35 36 37 38 39 40 41 42 43 44 45 46 47 48 49 50
386
ASUS43 KLSX 180907
RWRMO

WEATHER SUMMARY FOR MISSOURI
NATIONAL WEATHER SERVICE SPRINGFIELD MO
300 AM CST WED JAN 18 2017

NOTE: "FAIR" INDICATES FEW OR NO CLOUDS BELOW 12,000 FEET WITH NO
       SIGNIFICANT WEATHER AND/OR OBSTRUCTIONS TO VISIBILITY.
       CURRENT SKY AND/OR WEATHER CONDITIONS ARE NOT AVAILABLE FOR
       CHILLICOTHE AND FARMINGTON.

MOZ001>031-035>038-043-044-053-054-181000-
...NORTHERN AND WESTERN MISSOURI...

CITY           SKY/WX    TMP DP  RH WIND       PRES   REMARKS
KANSAS CTY INT   N/A     27  25  92 SW5       30.15S WCI  22
KANSAS C DTWN  CLOUDY    32  31  96 SW3       30.16S
LEE`S SUMMIT   FOG       31  30  96 SW8       30.15F VSB 1/2 WCI  23
ST JOSEPH      FOG       28  28 100 S5        30.17R VSB 1/4 WCI  23
CHILLICOTHE      N/A     31  30  96 CALM      30.18S
KIRKSVILLE     CLOUDY    33  31  92 SW7       30.17R WCI  27

$$
MOZ066>068-077>081-088>096-101>105-181000-
...SOUTHWEST MISSOURI...

CITY           SKY/WX    TMP DP  RH WIND       PRES   REMARKS
SPRINGFIELD    CLOUDY    36  35  96 CALM      30.17R FOG
JOPLIN         CLOUDY    36  36 100 E6        30.18R FOG
BRANSON        CLOUDY    37  37 100 CALM      30.18S

$$
MOZ032>034-039>042-045>050-055>058-069>072-181000-
...CENTRAL MISSOURI...

CITY           SKY/WX    TMP DP  RH WIND       PRES   REMARKS
COLUMBIA       CLOUDY    36  32  85 W8        30.18F WCI  30
JEFFERSON CITY CLOUDY    37  32  82 NW3       30.19F
ROLLA          CLOUDY    36  35  96 NW6       30.16F
SEDALIA        CLOUDY    38  35  89 CALM      30.18F
WHITEMAN AFB   CLOUDY    36  36 100 SW7       30.15F
WARRENSBURG    CLOUDY    36  34  93 S5        30.17F
OSAGE BEACH    CLOUDY    37  34  89 CALM      30.18F

$$
MOZ051-052-059>065-181000-
...EAST CENTRAL MISSOURI...

CITY           SKY/WX    TMP DP  RH WIND       PRES   REMARKS
ST LOUIS INTL  CLOUDY    40  34  79 NW9       30.19S
SPIRIT OF STL  CLOUDY    39  34  82 W7        30.19S
ST CHARLES     CLOUDY    38  34  85 NW12      30.20R

$$
MOZ072>076-082>087-097>100-106>115-181000-
...SOUTH CENTRAL AND SOUTHEAST MISSOURI...

CITY           SKY/WX    TMP DP  RH WIND       PRES   REMARKS
CAPE GIRARDEAU CLOUDY    42  36  79 N5        30.19R
FARMINGTON     CLOUDY    37  35  92 N7        30.18S
POPLAR BLUFF   CLOUDY    42  38  85 NW5       30.21R
WEST PLAINS    CLOUDY    37  36  96 N5        30.17S FOG

$$



USA.gov is the U.S. government's official web portal to all federal, state and local government web resources and services.